This is the latest recevied weather packets stored in our database for station/object N9BLE. If no packets are shown the sender has not sent any weather packets the latest 10 day(s).
| Time | Temp. | Humidity | Pressure | Rain* | Wind** | Luminosity | Snow |
|---|---|---|---|---|---|---|---|
| 1777155614 | 17.78° C | 56% | 1018.5 hPa | 0 mm | - | 182 W/m² | - |
| 1777155312 | 17.78° C | 58% | 1018.5 hPa | 0 mm | - | 212 W/m² | - |
| 1777155009 | 17.78° C | 58% | 1018.7 hPa | 0 mm | - | 196 W/m² | - |
| 1777154706 | 18.33° C | 57% | 1018.5 hPa | 0 mm | - | 195 W/m² | - |
| 1777154402 | 18.33° C | 57% | 1018.7 hPa | 0 mm | - | 251 W/m² | - |
| 1777154097 | 18.33° C | 57% | 1018.6 hPa | 0 mm | - | 298 W/m² | - |
| 1777153794 | 18.33° C | 56% | 1018.7 hPa | 0 mm | - | 335 W/m² | - |
| 1777153490 | 18.89° C | 56% | 1018.6 hPa | 0 mm | - | 366 W/m² | - |
| 1777153186 | 18.89° C | 58% | 1018.7 hPa | 0 mm | - | 381 W/m² | - |
| 1777152883 | 18.89° C | 57% | 1018.7 hPa | 0 mm | - | 422 W/m² | - |
| 1777152579 | 18.89° C | 56% | 1018.6 hPa | 0 mm | - | 414 W/m² | - |
| 1777152276 | 18.89° C | 57% | 1018.6 hPa | 0 mm | - | 435 W/m² | - |
| 1777151971 | 18.89° C | 55% | 1018.5 hPa | 0 mm | - | 349 W/m² | - |
| 1777151666 | 18.89° C | 55% | 1018.8 hPa | 0 mm | - | 414 W/m² | - |
| 1777151364 | 18.89° C | 55% | 1018.6 hPa | 0 mm | - | 475 W/m² | - |
| 1777151060 | 18.89° C | 56% | 1018.7 hPa | 0 mm | - | 461 W/m² | - |
| 1777150754 | 18.89° C | 54% | 1018.7 hPa | 0 mm | - | 483 W/m² | - |
| 1777150450 | 19.44° C | 56% | 1018.6 hPa | 0 mm | - | 513 W/m² | - |
| 1777150146 | 19.44° C | 54% | 1018.4 hPa | 0 mm | - | 527 W/m² | - |
| 1777149843 | 18.89° C | 60% | 1018.5 hPa | 0 mm | - | 538 W/m² | - |
| 1777149539 | 18.89° C | 55% | 1018.3 hPa | 0 mm | - | 524 W/m² | - |
| 1777149236 | 19.44° C | 53% | 1018.2 hPa | 0 mm | - | 519 W/m² | - |
| 1777148936 | 19.44° C | 53% | 1018.3 hPa | 0 mm | - | 549 W/m² | - |
| 1777148632 | 18.89° C | 54% | 1018.3 hPa | 0 mm | - | 578 W/m² | - |
| 1777148328 | 19.44° C | 53% | 1018.3 hPa | 0 mm | - | 582 W/m² | - |
* Rain latest hour (hover to see other rain measurements)
** Current wind speed in m/s (hover to see current wind gust speed)